Accueil
METAR-TAF:

METAR-TAF

Aéroports :

Bridgeport Municipal Airport

Bridgeport, Texas, États-Unis

latitude: 33-10-31N, longitude: 097-49-42W, altitude: 260 m

Observation

Le bulletin a été fait il y a 24 minutes, à 01:55 UTC
Vent 3 kt de sud-ouest
Température 5°C
Humidité 60%
Pression 1028 hPa
Visibilité: 16.1 km
Ciel clair

METAR: KXBP 110155Z AUTO 23003KT 10SM CLR 05/M02 A3036 RMK AO2 T00471025 PNO

Heure: 20:19 (02:19 UTC)


TAF: absent

Observations et prévisions météorologiques de plus de 4000 aéroports (messages METAR et TAF).

Les stations disponibles sont représentées par des disques jaunes et rouges sur la carte.

Passer la souris dessus pour voir le nom de la station.

Cliquer dessus pour voir les observations et prévisions météorologiques.

Pour changer de carte: cliquez sur les boutons verts avec une croix noire pour zoomer, sur le bouton vert avec un tiret pour effectuer un zoom arrière, ou sur les flèches vertes pour les cartes adjacentes.


METAR-TAF: